Starlink 30295

operational
NORAD ID: 57683 Int'l Des: 2023-124 Owner: SPXS Country: US Constellation: starlink
LEOCIRCULAR

关于 Starlink 30295

正在加载描述...

实时位置

正在加载3D地球...

即将过境

高度历史

Altitude vs Time

uPlot chart will show altitude changes over time

两行轨道根数

1 57683U 23124W 25259.36449420 -.00001377 00000-0 -34389-4 0 9997
2 57683 53.1616 296.7974 0001407 87.7918 272.3243 15.30181661116877
Epoch: Sep 16, 2025 • Age: 42 hours

当前状态

高度 491.7 km
速度 7.62 km/s
星下点 -45.82°S, 123.04°E
发射日期 Aug 22, 2023
运行时间 2 years
类型 internet

技术详情

分类 Payload
质量 730.00 kg
干质量 700.00 kg
总质量 730.00 kg
长度 0.30 m
直径 4.10 m
跨度 29.00 m
形状 Box + pan
制造商 SPXS
平台类型 Starlink V2M
阶段状态 In Orbit
所有者/国家 SPXS/US

大型星座

Loading constellations...